User: anonymous   Login
Location: Unspecified
(0.0000°N, 0.0000°E)
Time: 16:24:13
(UTC+00:00)
Language:

COSMOS 2507 - Orbit

View from above orbital plane
View from above orbital plane
View from above satellite
View from above satellite

Ground track
Ground track

The orbit data is extracted from the following two-line orbital elements,

1 40920U 15050A   22279.87432879  .00000043  00000-0  23882-3 0  9999
2 40920  82.4956 199.6586 0010426  50.6487 309.5511 12.42892217319261
Epoch (UTC): 06 October 2022 20:59:02
Eccentricity: 0.0010426
inclination: 82.4956°
perigee height: 1486 km
apogee height: 1502 km
right ascension of ascending node: 199.6586°
argument of perigee: 50.6487°
revolutions per day: 12.42892217
mean anomaly at epoch: 309.5511°
orbit number at epoch: 31926

The dashed part of the orbit path shows where the satellite is in the earth's shadow,  

DLR